Weather in Terskol

Russia / The Kabardino-Balkar Republic     43°15′21″N   42°30′46″E
temp.,
°C
wind,
m/s
gust,
m/s
humid.,
%
clouds,
%
prec.,
mm/h
press.,
hPa
HPBL,
m
2 march, tue
tue200:00−21sw12100100 0.1 103020
03:00−22nw029797 0.1 103020
06:00−22w12928 0.0 103120
09:00−16ssw22814 0.0 1030131
12:00−13ssw33853 0.0 1028485
15:00−12ssw338852 0.1 1026478
18:00−19ssw22100100 0.1 102622
21:00−20sw239992 0.1 102827
3 march, wed
wed300:00−20ssw239344 0.0 102623
03:00−21ssw339426 0.0 102525
06:00−21sw349758 0.0 102429
09:00−15ssw559579 0.0 1023208
12:00−13sw5591100 0.2 1021640
15:00−13sw5691100 0.9 1021901
18:00−17sw43100100 0.8 102433
21:00−19sw33100100 1.2 102721
4 march, thu
thu400:00−21sw3399100 0.1 102822
03:00−20wsw2399100 0.2 102921
06:00−20wnw126571 0.0 102920
09:00−12sw115335 0.0 102874
12:00−10ssw21670 0.0 1026364
15:00−10s328822 0.0 1024308
18:00−17s129942 0.0 102420
21:00−18s128230 0.0 102520
5 march, fri
fri500:00−18se02630 0.0 102420
03:00−17nnw02360 0.0 102320
06:00−17nnw12280 0.0 102220
09:00−9wsw11390 0.0 102164
12:00−7sw22560 0.0 1019401
15:00−7sw32740 0.0 1019376
18:00−15sw12892 0.0 102121
21:00−15sw13381 0.0 102221
6 march, sat
sat600:00−14wsw13337 0.0 102221
03:00−14sw233128 0.0 102121
06:00−14sw23308 0.0 102021
09:00−7ssw334838 0.0 1018107
12:00−6ssw4448100 0.0 1016412
15:00−7ssw4465100 0.0 1015429
18:00−11ssw3388100 0.0 101556
21:00−12ssw4496100 0.4 101685